Regional Weather Roundup
Issued by NWS Wakefield, VA

Home | Current Version | Previous Version | Text Only | Print | Product List | Glossary On
Versions: 1 2 3 4 5 6 7 8 9 10 11 12 13 14 15 16 17 18 19 20 21 22 23 24 25 26 27 28 29 30 31 32 33 34 35 36 37 38 39 40 41 42 43 44 45 46 47 48 49 50
000
ASUS41 KAKQ 050214
RWRAKQ

REGIONAL WEATHER ROUNDUP
NATIONAL WEATHER SERVICE WAKEFIELD VA
1000 PM EDT MON MAY 04 2015

Note: "fair" indicates few or no clouds below 12,000 feet with no
significant weather and/or obstructions to visibility. * = Denotes
station may not report precipitation (e.g., rain,snow,etc.),
thunder or fog.

VAZ042-051-052>054-056-050300-
NORTHERN VIRGINIA

CITY           SKY/WX    TMP DP  RH WIND       PRES   REMARKS
WASH NATIONAL  PTCLDY    72  56  57 S9        30.19R
DULLES         PTCLDY    74  50  42 S7        30.18R
FORT BELVOIR   CLEAR     64  55  73 CALM      30.19R
QUANTICO       CLEAR     71  55  56 S9        30.20R
FREDERICKSBRG* CLEAR     74  55  50 S7        30.19R
STAFFORD*      CLEAR     71  49  46 S6        30.23S
WARRENTON      CLEAR     72  55  56 S6        30.19R
CULPEPER*      NOT AVBL
MANASSAS*      CLEAR     66  54  63 S6        30.19R
LEESBURG*      CLEAR     73  54  49 S7        30.19R
WINCHESTER     CLEAR     72  43  35 SW5       30.18R
FRONT ROYAL*   FAIR      72  48  43 SW3       30.17R
LURAY*         FAIR      72  52  49 S5        30.19R
$$

VAZ048-049-060>072-079>083-050300-
CENTRAL AND SOUTH CENTRAL VIRGINIA

CITY           SKY/WX    TMP DP  RH WIND       PRES   REMARKS
RICHMOND       PTCLDY    71  52  50 S9        30.23R
CHESTERFIELD*  FAIR      70  46  43 S7        30.25R
PETERSBURG*    CLEAR     69  51  51 CALM      30.25S
HANOVER        FAIR      73  53  49 S7        30.24R
TAPPAHANNOCK*  FAIR      71  47  41 S6        30.23S
QUINTON*       FAIR      71  53  51 S5        30.24R
CHARLOTTSVILLE CLEAR     69  52  54 S8        30.20R
GORDONSVILLE*  FAIR      62  55  78 CALM      30.20R
ORANGE*        CLEAR     68  54  60 CALM      30.22R
LOUISA*        CLEAR     73  54  49 S5        30.20S
BUMPASS*       FAIR      71  53  51 MISG      30.21R
FARMVILLE*     CLEAR     71  54  55 S6        30.22R
CREWE*         FAIR      69  53  56 S5        30.25R
FORT PICKETT*  FAIR      68  54  60 S8        30.25R
CHASE CITY*    FAIR      70  57  64 CALM      30.26R
CLARKSVILLE*   FAIR      66  54  63 S5        30.25R
SOUTH HILL*    CLEAR     65  53  66 CALM      30.32R
LAWRENCEVILLE* FAIR      67  53  61 S3        30.26R
EMPORIA*       CLEAR     64  50  59 SE3       30.29R
$$

VAZ088>098-050300-
SOUTHEAST VIRGINIA

CITY           SKY/WX    TMP DP  RH WIND       PRES   REMARKS
NORFOLK        CLEAR     70  49  47 S12       30.28R
VIRGINIA BEACH FAIR      73  51  46 S10       30.29R
NORFOLK NAVAL  CLEAR     76  51  41 S9        30.29R
WEST POINT*    CLEAR     72  51  48 S5        30.26R
SALUDA*        FAIR      69  53  57 MISG      30.24S
NEWPORT NEWS   CLEAR     75  50  41 S10       30.27R
LANGLEY AFB    CLEAR     71  52  50 S13       30.26R
FORT EUSTIS    CLEAR     70  52  53 S8        30.25R
WILLIAMSBURG*  CLEAR     73  54  49 S7        30.27R
HR EXEC AP*    FAIR      70  52  52 S9        30.30R
FRANKLIN*      CLEAR     67  52  59 S8        30.29R
WAKEFIELD      CLEAR     67  52  58 CALM      30.27R
$$

VAZ020-022-025-037-045-050300-
WEST CENTRAL AND SOUTHWEST VIRGINIA

CITY           SKY/WX    TMP DP  RH WIND       PRES   REMARKS
STAUNTON*      MOCLDY    69  50  50 S6        30.23R
WAYNESBORO*    FAIR      68  50  53 SW6       30.23R
HOT SPRINGS VA PTCLDY    63  46  54 SW6       30.32R
LYNCHBURG      CLEAR     64  54  69 S5        30.25R
DANVILLE       CLEAR     69  52  54 S5        30.26R
SOUTH BOSTON*  FAIR      68  53  58 S3        30.25R
MARTINSVILLE   CLEAR     68  52  56 CALM      30.29R
ROANOKE        CLEAR     71  50  47 CALM      30.26R
BLACKSBURG     CLEAR     60  50  69 CALM      30.32R
DUBLIN*        CLEAR     63  53  68 SW6       30.31R
MARION*        CLEAR     62  46  56 CALM      30.34R
HILLSVILLE*    CLEAR     64  50  59 S6        30.32R
RICHLANDS*     FAIR      67  41  38 CALM      30.31R
WISE*          CLEAR     63  41  45 CALM      30.32R
ABINGDON*      CLEAR     63  49  61 CALM      30.30R
$$

MDZ021>025-VAZ099-100-050300-
SOUTHERN MARYLAND AND THE DELMARVA PENINSULA

CITY           SKY/WX    TMP DP  RH WIND       PRES   REMARKS
PATUXENT RIVER PTCLDY    69  52  54 S8        30.21R
BAY BRIDGE APT   N/A    N/A N/A N/A S10G17    30.20R
LEONARDTOWN    CLEAR     68  50  52 S5        30.23R
DOVER          PTCLDY    72  48  43 SW3       30.19R
GEORGETOWN     CLEAR     68  45  43 S14G23    30.24R
EASTON         CLEAR     71  52  50 S9        30.25R
CAMBRIDGE      CLEAR     72  52  49 S8        30.22S
SALISBURY      CLEAR     66  44  45 S10       30.24R
OCEAN CITY     CLEAR     64  51  62 SW14      30.26S
WALLOPS ISLAND CLEAR     62  53  72 S15       30.26S
ACCOMACK*      CLEAR     64  46  52 S12       30.26S
$$

NCZ012>017-030>032-050300-
NORTH CENTRAL AND EASTERN NORTH CAROLINA

CITY           SKY/WX    TMP DP  RH WIND       PRES   REMARKS
ROANOKE RAPIDS FAIR      68  52  56 S6        30.29R
RALEIGH        PTCLDY    70  53  54 S9        30.29R
ELIZABETH CITY CLEAR     67  54  63 S9        30.32R
AHOSKIE*       CLEAR     67  52  59 S9        30.31R
EDENTON*       CLEAR     68  56  64 S8        30.32R
CURRITUCK*     CLEAR     69  51  52 S6        30.32R
KILL DEVIL HLS CLEAR     66  56  69 SW5       30.32R
MANTEO         CLEAR     66  58  76 SW10      30.34R
CAPE HATTERAS  CLEAR     65  56  72 SW7       30.35R
TARBORO*       FAIR      70  54  57 S8        30.32R
GOLDSBORO      NOT AVBL
WASHINGTON     CLEAR     67  51  56 S5        30.34R
GREENVILLE     CLEAR     68  52  56 S8        30.33R
NEW BERN       CLEAR     61  52  72 S3        30.35R
WILMINGTON     CLEAR     65  56  72 S3        30.34R
$$

VAZ048-050300-
ELSEWHERE

CITY           SKY/WX    TMP DP  RH WIND       PRES   REMARKS
HARRISBURG PA  PTCLDY    73  49  42 S7        30.14R
BALTIMORE      PTCLDY    70  52  52 S3        30.18R
ANNAPOLIS      CLEAR     66  53  63 S12       30.19R
ANDREWS AFB    CLEAR     67  53  59 S9        30.19R
PHILADELPHIA   PTCLDY    73  45  36 SW8       30.19R
HENDERSON NC   CLEAR     67  50  53 S7        30.27S
GREENSBORO     PTCLDY    68  50  52 S6        30.27R
ROCKY MOUNT    CLEAR     70  54  56 S9        30.31R
$$

VAZ100-050300-
MARINE

STATION/POSITION TIME  TEMP    WIND        PRES    WAVE   SWELL
                       AIR SEA DIR/SP/G            HT/PER HT/PER
                 (UTC) (F)     (DEG/KT/KT) (MB)    (FT/S) (FT/S)
BRANDYWINE LGT   0112   67 55  200/ 19/ 20 1023.2R
CAPE MAY NJ      0100      63  160/ 11/ 13 1023.0R
LEWES DE         0100   72 57  200/  7/ 10 1023.3R
15NM E FENWICK I 0150   56 53              1024.3R   3/ 9
OCEAN-CITY-INLET 0100   57 54  210/ 11/ 12 1024.3R
WACHAPREAGUE VA  0100   65 67  210/  9/ 15 1024.6R
THOMAS POINT MD  0200   64 57  170/ 20/ 21 1023.0R
GOOSES REEF MD   0200   63 59                N/A     1
COVE POINT MD    0100   64     190/ 15/ 16 1023.6R
SOLOMONS ISLAND  0100      63                N/A
BISHOPS HEAD MD  0100      71  170/ 15/ 17 1023.0R
PINEY POINT MD   0100          170/  8/  8   N/A
CAMBRIDGE MD     0100      62  180/  7/  9 1022.8R
LEWISETTA VA     0100   70 67              1022.9R
RAPPAHANNOCK LGT 0100          160/ 13/ 14 1024.6R
YORK RVR RNG VA  0100   69     190/ 12/ 13 1023.6R
YORKTOWN VA      0100   73 62  190/  6/  7 1023.9R
JAMESTOWN VA     0200   71 65  180/  8/ 12 1023.6R
DOMINION TERM VA 0100   71     190/ 11/ 13 1024.5R
KIPTOPEKE VA     0100      67  170/ 12/ 14   N/A
CHES BAY BRIDGE  0100   70 59  160/ 11/ 12 1024.5R
CAPE HENRY VA    0100   71     170/  9/ 12 1023.7R
CHESAPEAKE LGHT  0100   62     190/ 26/ 27 1025.0R
WILLOUBY STN VA  0100   73     180/ 15/ 16 1025.3R
S CRANEY ISL VA  0100          180/  9/ 13 1024.8R
CAPE HENRY BUOY  0128      55                N/A     3/11   2/11
1ST LANDING BUOY 0200      60                N/A     1/ 3
CAPE CHARLES BUO 0126      56                N/A     3/12   2/12
OFFSHORE WE BUOY 0111      52                N/A     3/10   3/10
64NM E OF VA BCH 0150   64 62  200/ 14/ 16 1026.1R   3/ 9   3/ 9
DUCK PIER NC     0100   69 53  190/ 13/ 15 1025.1R
44056 DUCK FRF   0111      58                N/A     3/11   2/11
OREGON INLET NC  0100      70  180/ 10/ 12 1026.8R
HATTERAS NC      0100   69 68  190/  4/  7 1026.8R
DIAMOND SHLS NC  0150   74 77  190/ 14/ 16 1027.6R   4/11   3/11
CAPE LOOKOUT NC  0200   69     180/  6/  7 1027.4R
$$


USA.gov is the U.S. government's official web portal to all federal, state and local government web resources and services.